Regional Weather Roundup
Issued by NWS

Home | Current Version | Previous Version | Text Only | Print | Product List | Glossary On
Versions: 1 2 3 4 5 6 7 8 9 10 11 12 13 14 15 16 17 18 19 20 21 22 23 24 25 26 27 28 29 30 31 32 33 34 35 36 37 38 39 40 41 42 43 44 45 46 47 48 49 50
000
ASUS45 KTFX 281119
RWRMT
MONTANA HOURLY WEATHER ROUNDUP
NATIONAL WEATHER SERVICE GREAT FALLS MT
519 AM MDT MON JUL 28 2014

NOTE: "FAIR" INDICATES FEW OR NO CLOUDS BELOW 12000 FEET WITH NO
SIGNIFICANT WEATHER AND/OR OBSTRUCTIONS TO VISIBILITY.

* THESE STATIONS ARE NOT UNDER NWS QUALITY CONTROL. THEY DO NOT
   REPORT WEATHER SUCH AS PRECIPITATION OR FOG.

MTZ001>007-043-281200-
WEST OF THE DIVIDE
CITY           SKY/WX    TMP DP  RH WIND       PRES   REMARKS
KALISPELL      PTCLDY    55  48  77 NE6       30.18R
MISSOULA       PTCLDY    61  43  52 E3        30.19S
BUTTE          PTCLDY    48  34  59 SE5       30.33S
MULLAN PASS    MOCLDY    64  36  35 SE6       30.32S
* ESSEX        N/A       54  41  62 S9G14      N/A
* LINCOLN      N/A       44  40  86 N/A        N/A
* LOOKOUT PASS N/A       62  41  46 N/A        N/A
* POLSON       N/A       60  43  54 E2         N/A
* RONAN APT    MOCLDY    54  46  74 N/A        N/A
* SEELEY LAKE  N/A       43  37  79 N3         N/A
* THOMP F APT  MOCLDY    69  30  23 N/A        N/A
* YAAK HILL    N/A       59  47  65 SW1        N/A
$$

MTZ008-052>055-281200-
SOUTHWEST MONTANA
CITY           SKY/WX    TMP DP  RH WIND       PRES   REMARKS
BOZEMAN        PTCLDY    55  41  59 S5        30.27S
DILLON         PTCLDY    55  32  42 S7        30.29R
W YELLOWSTONE  PTCLDY    41  36  82 CALM      30.41R
* THREE FORKS  PTCLDY    52  52 100 N/A        N/A
* BOULDER HILL N/A       60  32  35 SW6        N/A
* RAYNOLDS PAS N/A       51  51 100 N/A        N/A
* WHITEHALL    N/A       58  34  41 NE2G9      N/A
* WISE RIVER   N/A       49  32  52 SW2        N/A
$$

MTZ009>010-012-014-046-048-049-054-281200-
EAST SLOPES AND CENTRAL MONTANA
CITY           SKY/WX    TMP DP  RH WIND       PRES   REMARKS
CUT BANK       PTCLDY    54  43  67 E8        30.25S
GREAT FALLS    CLEAR     55  41  59 S6        30.22R
HELENA         PTCLDY    61  37  41 CALM      30.25R
MALMSTROM AFB  CLEAR     57  41  55 S5        30.23R
* CONRAD       PTCLDY    45  45 100 N/A        N/A
* DEARBORN     N/A       58  41  53 S1         N/A
* EAST GLACIER N/A       47  40  77 N1G8       N/A
* ROGERS PASS  N/A       57  35  44 NW3        N/A
* SAINT MARY   N/A       40  37  89 SE3        N/A
* SWEET GRASS  N/A       62  42  48 S17G23     N/A
* WHITE SULPH  N/A       57  37  47 NE7        N/A
$$

MTZ011-013-016-021-035-040-045-047-050-051-281200-
NORTH CENTRAL MONTANA
CITY           SKY/WX    TMP DP  RH WIND       PRES   REMARKS
HAVRE          CLEAR     57  46  67 NE9       30.21S
LEWISTOWN      CLEAR     63  43  48 SE8       30.29S
* FORT BENTON  PTCLDY    66  43  43 NE7       30.22R
* CHESTER      N/A       65  43  45 SE9G17     N/A
* DENTON       N/A       64  41  43 SE10G16    N/A
* JUDITH GAP   N/A       53  42  66 N/A        N/A
* LOMA         N/A       66  44  45 E16G22     N/A
$$

MTZ017>020-022>027-061-062-281200-
NORTHEAST MONTANA
CITY           SKY/WX    TMP DP  RH WIND       PRES   REMARKS
GLASGOW        CLEAR     55  50  83 E10       30.26S
GLENDIVE       CLEAR     55  50  83 E6        30.33R
JORDAN         CLEAR     52  43  72 CALM      30.27S
SIDNEY         CLEAR     50  46  86 CALM      30.32F
WOLF POINT     CLEAR     52  48  86 CALM      30.29S
* BEAVER HILL  N/A       53  50  90 SE10       N/A
* CIRCLE       N/A       57  52  83 N/A        N/A
* LINDSAY DVD  N/A       51  49  93 N/A        N/A
* NAVAJO       N/A       52  49  90 S4         N/A
$$

MTZ028>042-056>058-281200-
SOUTHCENTRAL AND SOUTHEAST MONTANA
CITY           SKY/WX    TMP DP  RH WIND       PRES   REMARKS
BAKER          CLEAR     54  50  86 SE7       30.33S
BILLINGS       CLEAR     63  41  45 N7        30.26S
LIVINGSTON     CLEAR     52  37  57 W5        30.31R
MILES CITY     CLEAR     59  54  84 SE7       30.28S
* LAUREL APT   PTCLDY    61  39  44 N/A        N/A
* ROUNDUP APT  CLEAR     57  39  51 N/A        N/A
* ALZADA       N/A       53  51  93 E5         N/A
* HYSHAM       N/A       64  43  47 E9         N/A
* LAME DEER    N/A       58  48  70 E9         N/A
* REED POINT   N/A       52  46  80 W1         N/A
* ROSCOE HILL  N/A       60  36  41 W2         N/A
$$

REGIONAL REPORTS...DAKOTAS
CITY           SKY/WX    TMP DP  RH WIND       PRES   REMARKS
WILLISTON      CLEAR     52  48  86 CALM      30.32R
DICKINSON      CLEAR     48  46  93 S7        30.34R
CROSBY         MOCLDY    54  54 100 S5        30.32S
TIOGA          FOG       48  48 100 E5        30.36R
WATFORD CITY   FAIR      48  48 100 CALM      30.31S
BISMARCK       CLEAR     46  46 100 CALM      30.35R
GRAND FORKS    CLOUDY    61  55  81 NW5       30.25R
FARGO          CLOUDY    61  55  81 N6        30.25R
BUFFALO SD     CLEAR     52  48  86 SE8       30.28F
RAPID CITY     FAIR      52  48  86 CALM      30.35F
$$

REGIONAL REPORTS...WYOMING/IDAHO/WASHINGTON
CITY           SKY/WX    TMP DP  RH WIND       PRES   REMARKS
GILLETTE       CLEAR     61  48  62 S8        30.35S
SHERIDAN       CLEAR     52  45  77 CALM      30.29R
YELLOWSTONE LA CLEAR     39  34  82 NW3       30.51R
SALMON         PTCLDY    52  34  50 CALM      30.20R
MULLAN PASS    MOCLDY    64  36  35 SE6       30.32S
SAND POINT     MOCLDY    55  52  90 CALM      30.14R
SPOKANE        CLOUDY    72  45  38 NE9       30.11R
$$

REGIONAL REPORTS...ALBERTA
CITY           SKY/WX    TMP DP  RH WIND       PRES   REMARKS
CALGARY        FAIR      52  46  80 NW5       30.25S
LETHBRIDGE     CLEAR     52  50  93 W9        30.21S
MEDICINE HAT   FAIR      57  52  83 E7        30.22R
EDMONTON       PTCLDY    52  50  93 SE2       30.21S
WATERTON GATE  N/A       45  43  93 SW6        N/A
CARDSTON       N/A       46  45  96 S3         N/A
MILK RIVER     N/A       59  45  60 S8         N/A
$$

REGIONAL REPORTS...SASKATCHEWAN
CITY           SKY/WX    TMP DP  RH WIND       PRES   REMARKS
SWIFT CURRENT  CLEAR     52  48  86 SW8       30.28R
MOOSE JAW      FOG       54  54 100 SE6       30.29S
REGINA         FAIR      54  52  93 SE7       30.30S
VAL MARIE      N/A       48  46  93 E5         N/A
ASSINIBOIA     N/A       54  50  86 SE5        N/A
CORONACH       N/A       46  45  96 SE1        N/A

$$




USA.gov is the U.S. government's official web portal to all federal, state and local government web resources and services.